INTELSAT 5 (IS-5)       
1 24916U 97046A   19266.48563617  .00000083  00000-0  00000+0 0  9992
2 24916   5.1670  66.9833 0002870 109.7622 223.1316  1.00269071 80969
SL-12 R/B(2)            
1 24919U 97046D   19264.38481285 -.00000074  00000-0  00000+0 0  9993
2 24919  15.0058 348.1918 4830381 299.2686  93.0864  1.79818633144958